Regional Weather Roundup
Issued by NWS Northern Indiana

Home | Current Version | Previous Version | Graphics & Text | Print | Product List | Glossary On
Versions: 1 2 3 4 5 6 7 8 9 10 11 12 13 14 15 16 17 18 19 20 21 22 23 24 25 26 27 28 29 30 31 32 33 34 35 36 37 38 39 40 41 42 43 44 45 46 47 48 49 50
000
ASUS43 KIWX 070410
RWRIWX

KIWX WEATHER ROUNDUP
NATIONAL WEATHER SERVICE NORTHERN INDIANA
1200 AM EDT TUE JUL 07 2015

NOTE: "FAIR" INDICATES FEW OR NO CLOUDS BELOW 12,000 FEET WITH NO
SIGNIFICANT WEATHER AND/OR OBSTRUCTIONS TO VISIBILITY.

* THESE STATIONS ARE NOT UNDER NWS QUALITY CONTROL. THEY ALSO MAY NOT
  REPORT WEATHER SUCH AS PRECIPITATION OR FOG.

INZ001>027-070500-
NORTHERN INDIANA

CITY           SKY/WX    TMP DP  RH WIND       PRES   REMARKS
GARY*          CLOUDY   N/A N/A N/A CALM      29.87F
VALPARAISO     CLOUDY    76  72  87 SW8       29.88F
MICHIGAN CITY* CLOUDY    73  68  83 S7        29.87F
LAPORTE*       CLOUDY    76  74  94 S7        29.89F
KNOX*          CLOUDY    77  70  78 S7        29.89F
SOUTH BEND     CLOUDY    79  71  76 S13       29.89F
GOSHEN         CLOUDY    77  68  73 S12       29.91F
MONTICELLO*    CLOUDY    77  73  88 S9        29.91F
LOGANSPORT*    CLOUDY    75  66  73 S8        29.93F
ROCHESTER*     CLOUDY    79  72  78 S6        29.92F
WARSAW*          N/A     77  68  73 S3        29.92F
ANGOLA*          N/A     75  70  83 S5        29.94S
FORT WAYNE     CLOUDY    75  68  78 S8        29.95F
HUNTINGTON*    CLOUDY    75  69  80 SW7       29.94F
PERU/GRISSOM   CLOUDY    77  71  81 S10       29.92F
MARION*        CLOUDY    74  68  82 S7        29.96F

$$
INZ028>050-070500-
CENTRAL INDIANA

CITY           SKY/WX    TMP DP  RH WIND       PRES   REMARKS
LAFAYETTE      CLOUDY    76  69  79 SW7       29.92F
KOKOMO*        CLOUDY    75  70  83 S9        29.93F
MUNCIE*        CLOUDY    77  69  76 S7        29.97F
INDIANAPOLIS   CLOUDY    78  70  76 S12       29.96S

$$
MIZ043>046-050>051-056>058-064>065-071>073-077>080-070500-
SOUTHWEST LOWER MICHIGAN

CITY           SKY/WX    TMP DP  RH WIND       PRES   REMARKS
BATTLE CREEK   CLOUDY    78  66  66 S12       29.89F
BENTON HARBOR  CLOUDY    78  69  73 S12G21    29.85F
COLDWATER*     CLOUDY    76  64  65 S6        29.92F
HILLSDALE*     CLOUDY    76  66  71 S8        29.94S
HOLLAND        CLOUDY    79  68  69 S9        29.84F
GRAND RAPIDS   CLOUDY    78  67  68 S14       29.85F
KALAMAZOO      CLOUDY    77  66  68 S12       29.88F
STURGIS*       CLOUDY    75  66  73 S8        29.90F
THREE RIVERS*  FAIR      75  67  74 S9        29.90F

$$
OHZ001>008-015>018-024>025-070500-
NORTHWEST OHIO

CITY           SKY/WX    TMP DP  RH WIND       PRES   REMARKS
DEFIANCE       CLOUDY    76  66  71 S8        29.94F
FINDLAY        PTCLDY    72  65  78 S9        29.96S
TOLEDO EXPRESS CLOUDY    73  65  75 S7        29.94F
TOLEDO METCALF MOCLDY    73  64  73 S8        29.95S
LIMA           MOCLDY    73  65  75 S9        29.98S

$$
AND FOR LAKE MICHIGAN COASTAL AND OPEN LAKE BUOY OBSERVATIONS

STATION/POSITION TEMP    WIND        PRES    VSBY  WAVE
                 AIR SEA DIR/SP/G                  HT/PER
                 (F)     (DEG/KT/KT) (MB)    (MI)  (FT/S)
CALUMET HARBOR    74     260/  5/ 11   N/A
MICHIGAN CITY     76     160/ 12/ 16   N/A
BURNS HARBOR      76     190/ 11/ 15 1012.2R
SAINT JOSEPH      80     170/ 11/ 17 1010.8F
4 MI NW BRIDGMAN  74 67  210/ 16/ 19   N/A           2/ 3
MICHIGAN CITY     75 68  220/ 12/ 16   N/A           1

$$
&&



USA.gov is the U.S. government's official web portal to all federal, state and local government web resources and services.